Time,TemperatureF,DewpointF,PressureIn,WindDirection,WindDirectionDegrees,WindSpeedMPH,WindSpeedGustMPH,Humidity,HourlyPrecipIn,Conditions,Clouds,dailyrainin,SoftwareType,DateUTC
2013-01-01 00:02:00,32.0,31.0,30.12,WNW,286,0.0,2.0,96,0.00,,,0.10,,2013-01-01 06:02:00,
2013-01-01 00:12:00,32.0,31.0,30.12,WNW,286,0.0,2.0,96,0.00,,,0.10,,2013-01-01 06:12:00,
2013-01-01 00:22:00,32.0,31.0,30.12,WNW,286,0.0,0.0,96,0.00,,,0.10,,2013-01-01 06:22:00,
2013-01-01 00:32:00,32.0,31.0,30.12,NW,305,1.0,3.0,96,0.00,,,0.10,,2013-01-01 06:32:00,
2013-01-01 00:42:00,32.0,31.0,30.12,NW,305,1.0,3.0,96,0.00,,,0.10,,2013-01-01 06:42:00,
2013-01-01 00:52:00,32.0,31.0,30.12,NW,307,1.0,3.0,96,0.00,,,0.10,,2013-01-01 06:52:00,
2013-01-01 01:02:00,32.0,31.0,30.12,NW,307,1.0,3.0,96,0.00,,,0.10,,2013-01-01 07:02:00,
2013-01-01 01:12:00,32.0,31.0,30.12,NW,308,3.0,5.0,96,0.00,,,0.10,,2013-01-01 07:12:00,
2013-01-01 01:22:00,32.0,31.0,30.12,NW,308,3.0,5.0,96,0.00,,,0.10,,2013-01-01 07:22:00,
2013-01-01 01:32:00,32.0,31.0,30.11,NNW,333,2.0,5.0,96,0.00,,,0.10,,2013-01-01 07:32:00,
2013-01-01 01:42:00,32.0,31.0,30.11,NNW,333,2.0,5.0,96,0.00,,,0.10,,2013-01-01 07:42:00,
2013-01-01 01:52:00,32.0,31.0,30.11,North,351,2.0,5.0,96,0.00,,,0.10,,2013-01-01 07:52:00,
2013-01-01 02:02:00,32.0,31.0,30.11,North,360,4.0,6.0,96,0.00,,,0.10,,2013-01-01 08:02:00,
2013-01-01 02:12:00,32.0,31.0,30.11,North,360,4.0,6.0,96,0.00,,,0.10,,2013-01-01 08:12:00,
2013-01-01 02:22:00,32.0,31.0,30.12,North,350,2.0,6.0,96,0.00,,,0.10,,2013-01-01 08:22:00,
2013-01-01 02:32:00,32.0,31.0,30.13,North,350,2.0,5.0,96,0.00,,,0.10,,2013-01-01 08:32:00,
2013-01-01 02:42:00,32.0,31.0,30.13,North,350,2.0,5.0,96,0.00,,,0.10,,2013-01-01 08:42:00,
2013-01-01 02:53:00,32.0,31.0,30.13,North,350,3.0,5.0,96,0.00,,,0.10,,2013-01-01 08:53:00,
2013-01-01 03:02:00,32.0,31.0,30.12,North,350,3.0,5.0,96,0.00,,,0.10,,2013-01-01 09:02:00,
2013-01-01 03:12:00,32.0,31.0,30.12,North,350,3.0,5.0,96,0.00,,,0.10,,2013-01-01 09:12:00,
2013-01-01 03:22:00,32.0,31.0,30.14,North,350,3.0,6.0,96,0.00,,,0.10,,2013-01-01 09:22:00,
2013-01-01 03:32:00,32.0,31.0,30.14,North,350,3.0,6.0,96,0.00,,,0.10,,2013-01-01 09:32:00,
2013-01-01 03:42:00,32.0,31.0,30.14,North,350,3.0,6.0,96,0.00,,,0.10,,2013-01-01 09:42:00,
2013-01-01 03:52:00,32.0,31.0,30.14,NNW,336,5.0,7.0,96,0.00,,,0.10,,2013-01-01 09:52:00,
2013-01-01 04:02:00,32.0,31.0,30.13,NNW,343,6.0,10.0,96,0.00,,,0.10,,2013-01-01 10:02:00,
2013-01-01 04:12:00,32.0,31.0,30.13,NNW,343,6.0,10.0,96,0.00,,,0.10,,2013-01-01 10:12:00,
2013-01-01 04:22:00,32.0,31.0,30.13,NNW,343,6.0,10.0,96,0.00,,,0.10,,2013-01-01 10:22:00,
2013-01-01 04:33:00,31.0,30.0,30.14,North,355,5.0,8.0,95,0.00,,,0.10,,2013-01-01 10:33:00,
2013-01-01 04:42:00,31.0,30.0,30.14,North,355,5.0,8.0,95,0.00,,,0.10,,2013-01-01 10:42:00,
2013-01-01 04:53:00,31.0,30.0,30.14,North,5,6.0,8.0,95,0.00,,,0.10,,2013-01-01 10:53:00,
2013-01-01 05:02:00,31.0,29.0,30.14,NNW,347,4.0,9.0,94,0.00,,,0.10,,2013-01-01 11:02:00,
2013-01-01 05:12:00,31.0,29.0,30.14,NNW,347,4.0,9.0,94,0.00,,,0.10,,2013-01-01 11:12:00,
2013-01-01 05:22:00,30.0,28.0,30.15,NNW,329,5.0,8.0,94,0.00,,,0.10,,2013-01-01 11:22:00,
2013-01-01 05:32:00,30.0,28.0,30.15,NNW,337,6.0,11.0,93,0.00,,,0.10,,2013-01-01 11:32:00,
2013-01-01 05:42:00,30.0,28.0,30.15,NNW,337,6.0,11.0,93,0.00,,,0.10,,2013-01-01 11:42:00,
2013-01-01 05:53:00,29.0,27.0,30.15,North,355,7.0,11.0,92,0.00,,,0.10,,2013-01-01 11:53:00,
2013-01-01 06:02:00,28.0,26.0,30.16,NNW,331,7.0,11.0,92,0.00,,,0.10,,2013-01-01 12:02:00,
2013-01-01 06:12:00,28.0,26.0,30.16,NNW,331,7.0,11.0,92,0.00,,,0.10,,2013-01-01 12:12:00,
2013-01-01 06:22:00,28.0,26.0,30.16,NNW,327,6.0,10.0,92,0.00,,,0.10,,2013-01-01 12:22:00,
2013-01-01 06:32:00,28.0,26.0,30.17,NNW,341,5.0,7.0,92,0.00,,,0.10,,2013-01-01 12:32:00,
2013-01-01 06:42:00,28.0,26.0,30.17,NNW,341,5.0,7.0,92,0.00,,,0.10,,2013-01-01 12:42:00,
2013-01-01 06:52:00,27.0,25.0,30.16,NNW,340,5.0,8.0,91,0.00,,,0.10,,2013-01-01 12:52:00,
2013-01-01 07:02:00,27.0,24.0,30.15,North,355,4.0,7.0,90,0.00,,,0.10,,2013-01-01 13:02:00,
2013-01-01 07:12:00,27.0,24.0,30.15,North,355,4.0,7.0,90,0.00,,,0.10,,2013-01-01 13:12:00,
2013-01-01 07:22:00,26.0,24.0,30.13,NNE,13,5.0,7.0,91,0.00,,,0.10,,2013-01-01 13:22:00,
2013-01-01 07:33:00,26.0,23.0,30.16,NNW,342,5.0,7.0,90,0.00,,,0.10,,2013-01-01 13:33:00,
2013-01-01 07:42:00,26.0,23.0,30.16,NNW,342,5.0,7.0,90,0.00,,,0.10,,2013-01-01 13:42:00,
2013-01-01 07:52:00,26.0,23.0,30.16,NNW,344,3.0,6.0,90,0.00,,,0.10,,2013-01-01 13:52:00,
2013-01-01 08:02:00,25.0,22.0,30.17,NNW,339,7.0,8.0,90,0.00,,,0.10,,2013-01-01 14:02:00,
2013-01-01 08:12:00,25.0,22.0,30.17,NNW,339,7.0,8.0,90,0.00,,,0.10,,2013-01-01 14:12:00,
2013-01-01 08:22:00,25.0,22.0,30.17,North,350,5.0,7.0,90,0.00,,,0.10,,2013-01-01 14:22:00,
2013-01-01 08:32:00,25.0,22.0,30.17,North,350,5.0,7.0,90,0.00,,,0.10,,2013-01-01 14:32:00,
2013-01-01 08:42:00,25.0,22.0,30.17,North,350,5.0,7.0,90,0.00,,,0.10,,2013-01-01 14:42:00,
2013-01-01 08:53:00,25.0,22.0,30.21,NNW,332,6.0,10.0,90,0.00,,,0.10,,2013-01-01 14:53:00,
2013-01-01 09:03:00,25.0,22.0,30.21,NNW,337,8.0,12.0,89,0.00,,,0.10,,2013-01-01 15:03:00,
2013-01-01 09:12:00,25.0,22.0,30.21,NNW,337,8.0,12.0,89,0.00,,,0.10,,2013-01-01 15:12:00,
2013-01-01 09:22:00,24.0,21.0,30.22,North,355,8.0,12.0,88,0.00,,,0.10,,2013-01-01 15:22:00,
2013-01-01 09:33:00,24.0,21.0,30.20,NNW,348,8.0,13.0,88,0.00,,,0.10,,2013-01-01 15:33:00,
2013-01-01 09:42:00,24.0,21.0,30.20,NNW,348,8.0,13.0,88,0.00,,,0.10,,2013-01-01 15:42:00,
2013-01-01 09:53:00,24.0,21.0,30.21,North,355,7.0,11.0,88,0.00,,,0.10,,2013-01-01 15:53:00,
2013-01-01 10:02:00,24.0,21.0,30.22,NNW,348,6.0,10.0,88,0.00,,,0.10,,2013-01-01 16:02:00,
2013-01-01 10:12:00,24.0,21.0,30.22,NNW,348,6.0,10.0,88,0.00,,,0.10,,2013-01-01 16:12:00,
2013-01-01 10:22:00,24.0,21.0,30.22,NNW,338,5.0,9.0,88,0.00,,,0.10,,2013-01-01 16:22:00,
2013-01-01 10:33:00,24.0,21.0,30.23,NNW,338,5.0,9.0,88,0.00,,,0.10,,2013-01-01 16:33:00,
2013-01-01 10:42:00,24.0,21.0,30.23,NNW,338,5.0,9.0,88,0.00,,,0.10,,2013-01-01 16:42:00,
2013-01-01 10:52:00,25.0,22.0,30.23,North,360,6.0,8.0,87,0.00,,,0.10,,2013-01-01 16:52:00,
2013-01-01 11:02:00,25.0,22.0,30.16,NNE,26,7.0,10.0,87,0.00,,,0.10,,2013-01-01 17:02:00,
2013-01-01 11:12:00,25.0,22.0,30.16,NNE,26,7.0,10.0,87,0.00,,,0.10,,2013-01-01 17:12:00,
2013-01-01 11:22:00,25.0,22.0,30.22,NNW,344,7.0,10.0,87,0.00,,,0.10,,2013-01-01 17:22:00,
2013-01-01 11:33:00,25.0,22.0,30.21,NNW,344,5.0,10.0,87,0.00,,,0.10,,2013-01-01 17:33:00,
2013-01-01 11:43:00,25.0,22.0,30.21,NNW,344,5.0,10.0,87,0.00,,,0.10,,2013-01-01 17:43:00,
2013-01-01 11:52:00,25.0,22.0,30.21,NNW,333,5.0,8.0,87,0.00,,,0.10,,2013-01-01 17:52:00,
2013-01-01 12:03:00,25.0,22.0,30.21,NNW,338,7.0,10.0,87,0.00,,,0.10,,2013-01-01 18:03:00,
2013-01-01 12:12:00,25.0,22.0,30.21,NNW,338,7.0,10.0,87,0.00,,,0.10,,2013-01-01 18:12:00,
2013-01-01 12:22:00,25.0,22.0,30.21,NNW,348,5.0,8.0,87,0.00,,,0.08,,2013-01-01 18:22:00,
2013-01-01 12:33:00,26.0,23.0,30.22,NNW,335,5.0,9.0,87,0.00,,,0.08,,2013-01-01 18:33:00,
2013-01-01 12:42:00,26.0,23.0,30.22,NNW,335,5.0,9.0,87,0.00,,,0.08,,2013-01-01 18:42:00,
2013-01-01 12:52:00,26.0,23.0,30.22,NNW,335,5.0,9.0,87,0.00,,,0.08,,2013-01-01 18:52:00,
2013-01-01 13:02:00,25.0,21.0,30.22,NW,325,4.0,5.0,86,0.00,,,0.08,,2013-01-01 19:02:00,
2013-01-01 13:12:00,25.0,21.0,30.22,NW,325,4.0,5.0,86,0.00,,,0.08,,2013-01-01 19:12:00,
2013-01-01 13:22:00,25.0,21.0,30.22,NNW,331,5.0,8.0,85,0.00,,,0.05,,2013-01-01 19:22:00,
2013-01-01 13:32:00,25.0,21.0,30.20,NNW,331,5.0,8.0,85,0.00,,,0.05,,2013-01-01 19:32:00,
2013-01-01 13:42:00,25.0,21.0,30.20,NNW,331,5.0,8.0,85,0.00,,,0.05,,2013-01-01 19:42:00,
2013-01-01 13:52:00,25.0,21.0,30.19,NNW,334,6.0,9.0,85,0.00,,,0.05,,2013-01-01 19:52:00,
2013-01-01 14:02:00,25.0,21.0,30.19,NNW,331,6.0,11.0,84,0.00,,,0.05,,2013-01-01 20:02:00,
2013-01-01 14:12:00,25.0,21.0,30.19,NNW,331,6.0,11.0,84,0.00,,,0.05,,2013-01-01 20:12:00,
2013-01-01 14:23:00,25.0,21.0,30.19,West,276,3.0,10.0,85,0.00,,,0.03,,2013-01-01 20:23:00,
2013-01-01 14:32:00,25.0,21.0,30.19,West,276,3.0,10.0,85,0.00,,,0.03,,2013-01-01 20:32:00,
2013-01-01 14:42:00,25.0,21.0,30.19,West,276,3.0,10.0,85,0.00,,,0.03,,2013-01-01 20:42:00,
2013-01-01 14:52:00,25.0,21.0,30.19,NNW,331,5.0,9.0,85,0.00,,,0.03,,2013-01-01 20:52:00,
2013-01-01 15:03:00,24.0,20.0,30.19,NNW,343,6.0,10.0,85,0.00,,,0.03,,2013-01-01 21:03:00,
2013-01-01 15:12:00,24.0,20.0,30.19,NNW,343,6.0,10.0,85,0.00,,,0.03,,2013-01-01 21:12:00,
2013-01-01 15:22:00,24.0,20.0,30.20,NNW,340,6.0,9.0,84,0.00,,,0.02,,2013-01-01 21:22:00,
2013-01-01 15:33:00,24.0,20.0,30.19,NNW,334,7.0,12.0,84,0.00,,,0.02,,2013-01-01 21:33:00,
2013-01-01 15:42:00,24.0,20.0,30.19,NNW,334,7.0,12.0,84,0.00,,,0.02,,2013-01-01 21:42:00,
2013-01-01 15:52:00,24.0,20.0,30.20,NW,321,6.0,10.0,84,0.00,,,0.02,,2013-01-01 21:52:00,
2013-01-01 16:02:00,24.0,20.0,30.21,NW,317,6.0,10.0,84,0.00,,,0.02,,2013-01-01 22:02:00,
2013-01-01 16:12:00,24.0,20.0,30.21,NW,317,6.0,10.0,84,0.00,,,0.02,,2013-01-01 22:12:00,
2013-01-01 16:22:00,23.0,19.0,30.21,North,360,7.0,11.0,84,0.00,,,0.01,,2013-01-01 22:22:00,
2013-01-01 16:33:00,23.0,19.0,30.20,North,355,6.0,10.0,84,0.00,,,0.01,,2013-01-01 22:33:00,
2013-01-01 16:42:00,23.0,19.0,30.20,North,355,6.0,10.0,84,0.00,,,0.01,,2013-01-01 22:42:00,
2013-01-01 16:52:00,23.0,19.0,30.21,NW,321,7.0,10.0,84,0.00,,,0.01,,2013-01-01 22:52:00,
2013-01-01 17:02:00,23.0,19.0,30.21,North,350,7.0,13.0,84,0.00,,,0.01,,2013-01-01 23:02:00,
2013-01-01 17:12:00,23.0,19.0,30.21,North,350,7.0,13.0,84,0.00,,,0.01,,2013-01-01 23:12:00,
2013-01-01 17:22:00,23.0,19.0,30.21,NW,319,7.0,10.0,84,0.00,,,0.00,,2013-01-01 23:22:00,
2013-01-01 17:32:00,23.0,19.0,30.21,NW,317,6.0,9.0,85,0.00,,,0.00,,2013-01-01 23:32:00,
2013-01-01 17:42:00,23.0,19.0,30.21,NW,317,6.0,9.0,85,0.00,,,0.00,,2013-01-01 23:42:00,
2013-01-01 17:52:00,23.0,19.0,30.22,NW,309,7.0,10.0,84,0.00,,,0.00,,2013-01-01 23:52:00,
2013-01-01 18:02:00,23.0,19.0,30.23,NNW,336,7.0,9.0,84,0.00,,,0.00,,2013-01-02 00:02:00,
2013-01-01 18:12:00,23.0,19.0,30.23,NNW,336,7.0,9.0,84,0.00,,,0.00,,2013-01-02 00:12:00,
2013-01-01 18:22:00,23.0,19.0,30.24,NNW,331,6.0,9.0,83,0.00,,,0.00,,2013-01-02 00:22:00,
2013-01-01 18:32:00,23.0,19.0,30.25,NNW,333,6.0,9.0,83,0.00,,,0.00,,2013-01-02 00:32:00,
2013-01-01 18:42:00,23.0,19.0,30.25,NNW,333,6.0,9.0,83,0.00,,,0.00,,2013-01-02 00:42:00,
2013-01-01 18:52:00,23.0,19.0,30.24,North,355,4.0,9.0,83,0.00,,,0.00,,2013-01-02 00:52:00,
2013-01-01 19:02:00,23.0,18.0,30.25,NW,325,6.0,11.0,81,0.00,,,0.00,,2013-01-02 01:02:00,
2013-01-01 19:12:00,23.0,18.0,30.25,NW,325,6.0,11.0,81,0.00,,,0.00,,2013-01-02 01:12:00,
2013-01-01 19:22:00,23.0,18.0,30.26,NNW,333,6.0,9.0,82,0.00,,,0.00,,2013-01-02 01:22:00,
2013-01-01 19:32:00,23.0,19.0,30.27,NNW,335,7.0,9.0,83,0.00,,,0.00,,2013-01-02 01:32:00,
2013-01-01 19:42:00,23.0,19.0,30.27,NNW,335,7.0,9.0,83,0.00,,,0.00,,2013-01-02 01:42:00,
2013-01-01 19:52:00,22.0,18.0,30.26,NNW,344,6.0,10.0,83,0.00,,,0.00,,2013-01-02 01:52:00,
2013-01-01 20:02:00,22.0,17.0,30.26,NNW,333,5.0,7.0,82,0.00,,,0.00,,2013-01-02 02:02:00,
2013-01-01 20:12:00,22.0,17.0,30.26,NNW,333,5.0,7.0,82,0.00,,,0.00,,2013-01-02 02:12:00,
2013-01-01 20:22:00,22.0,16.0,30.27,NNW,346,6.0,9.0,79,0.00,,,0.00,,2013-01-02 02:22:00,
2013-01-01 20:32:00,21.0,16.0,30.27,NNW,342,7.0,10.0,79,0.00,,,0.00,,2013-01-02 02:32:00,
2013-01-01 20:42:00,21.0,16.0,30.27,NNW,342,7.0,10.0,79,0.00,,,0.00,,2013-01-02 02:42:00,
2013-01-01 20:52:00,21.0,16.0,30.26,North,350,5.0,7.0,81,0.00,,,0.00,,2013-01-02 02:52:00,
2013-01-01 21:02:00,20.0,15.0,30.26,NNW,345,6.0,9.0,81,0.00,,,0.00,,2013-01-02 03:02:00,
2013-01-01 21:12:00,20.0,15.0,30.26,NNW,345,6.0,9.0,81,0.00,,,0.00,,2013-01-02 03:12:00,
2013-01-01 21:22:00,20.0,15.0,30.26,NNW,333,3.0,8.0,82,0.00,,,0.00,,2013-01-02 03:22:00,
2013-01-01 21:32:00,20.0,15.0,30.27,NNW,342,6.0,11.0,81,0.00,,,0.00,,2013-01-02 03:32:00,
2013-01-01 21:42:00,20.0,15.0,30.27,NNW,342,6.0,11.0,81,0.00,,,0.00,,2013-01-02 03:42:00,
2013-01-01 21:52:00,19.0,14.0,30.26,NNW,342,7.0,9.0,79,0.00,,,0.00,,2013-01-02 03:52:00,
2013-01-01 22:02:00,19.0,13.0,30.27,North,355,7.0,10.0,78,0.00,,,0.00,,2013-01-02 04:02:00,
2013-01-01 22:12:00,19.0,13.0,30.27,North,355,7.0,10.0,78,0.00,,,0.00,,2013-01-02 04:12:00,
2013-01-01 22:22:00,19.0,13.0,30.27,North,350,5.0,8.0,78,0.00,,,0.00,,2013-01-02 04:22:00,
2013-01-01 22:32:00,18.0,12.0,30.27,North,355,5.0,8.0,78,0.00,,,0.00,,2013-01-02 04:32:00,
2013-01-01 22:42:00,18.0,12.0,30.27,North,355,5.0,8.0,78,0.00,,,0.00,,2013-01-02 04:42:00,
2013-01-01 22:52:00,18.0,13.0,30.28,NNW,346,4.0,6.0,80,0.00,,,0.00,,2013-01-02 04:52:00,
2013-01-01 23:03:00,17.0,12.0,30.28,North,355,1.0,6.0,81,0.00,,,0.00,,2013-01-02 05:03:00,
2013-01-01 23:12:00,17.0,12.0,30.28,North,355,1.0,6.0,81,0.00,,,0.00,,2013-01-02 05:12:00,
2013-01-01 23:22:00,17.0,12.0,30.28,NNW,339,1.0,5.0,82,0.00,,,0.00,,2013-01-02 05:22:00,
2013-01-01 23:33:00,16.0,12.0,30.28,NNW,339,0.0,4.0,83,0.00,,,0.00,,2013-01-02 05:33:00,
2013-01-01 23:42:00,16.0,12.0,30.28,NNW,339,0.0,4.0,83,0.00,,,0.00,,2013-01-02 05:42:00,
2013-01-01 23:52:00,16.0,12.0,30.28,NNW,339,0.0,1.0,84,0.00,,,0.00,,2013-01-02 05:52:00,